Skip Page Navigation
NASA JPL Caltech
NASA Logo - Jet Propulsion Laboratory + View the NASA Portal
+ Near-Earth Object (NEO) Program
Search JPL
JPL Home Earth Solar System Stars & Galaxies Technology
JPL Solar System Dynamics
BODIES ORBITS EPHEMERIDES TOOLS PHYSICAL DATA DISCOVERY FAQ SITE MAP
JPL Small-Body Database Browser
Search: [ help ]  
(2002 CD14)
Classification: Apollo [NEO, PHA]          SPK-ID: 3114027
Ephemeris | Orbit Diagram | Orbital Elements | Physical Parameters | Close-Approach Data ]

[ hide orbit diagram ]
Orbit Diagram
Note: Make sure you have Java enabled on your browser to see the applet. This applet is provided as a 3D orbit visualization tool. The applet was implemented using 2-body methods, and hence should not be used for determining accurate long-term trajectories (over several years or decades) or planetary encounter circumstances. For accurate long-term ephemerides, please instead use our Horizons system.
Orbit Viewer

Additional Notes: the orbits shown in the applet are color coded. The planets are white lines, and the asteroid/comet is a blue line. The bright white line indicates the portion of the orbit that is above the ecliptic plane, and the darker portion is below the ecliptic plane. Likewise for the asteroid/comet orbit, the light blue indicates the portion above the ecliptic plane, and the dark blue the portion below the ecliptic plane.

Orbit Viewer applet originally written and kindly provided by Osamu Ajiki (AstroArts), and further modified by Ron Baalke (JPL).


Orbital Elements at Epoch 2456400.5 (2013-Apr-18.0) TDB
Reference: JPL 7 (heliocentric ecliptic J2000)
 Element Value Uncertainty (1-sigma)   Units 
e .5790522867197794 1.3021e-07  
a 1.778468334530468 1.5573e-07 AU
q .7486421785618831 2.2076e-07 AU
i 2.884262381319661 2.5293e-05 deg
node 127.7112922558403 0.000434 deg
peri 141.1507128882454 0.00044657 deg
M 203.6057204919703 0.00024374 deg
tp 2456776.844865491285
(2014-Apr-29.34486549)
0.00063374 JED
period 866.2986395861525
2.37
0.00011379
3.115e-07
d
yr
n .4155610819982113 5.4583e-08 deg/d
Q 2.808294490499053 2.4591e-07 AU
  Orbit Determination Parameters
   # obs. used (total)      48  
   data-arc span      2549 days (6.98 yr)  
   first obs. used      2002-02-07  
   last obs. used      2009-01-30  
   planetary ephem.      DE405  
   SB-pert. ephem.      SB405-CPV-2  
   condition code      1  
   fit RMS      .65748  
   data source      ORB  
   producer      Otto Matic  
   solution date      2011-Sep-14 19:44:46  

Additional Information
 Earth MOID = .0281254 AU 
 T_jup = 3.878 
[ show covariance matrix ]

Ephemeris | Orbit Diagram | Orbital Elements | Physical Parameters | Close-Approach Data ]

Physical Parameter Table
Parameter Symbol Value Units Sigma Reference Notes
absolute magnitude H 20.561 mag .85855 7 autocmod 2.5a

[ show close-approach data ]
Ephemeris | Orbit Diagram | Orbital Elements | Physical Parameters | Close-Approach Data ]
ABOUT SSD CREDITS/AWARDS PRIVACY/COPYRIGHT GLOSSARY LINKS
FirstGov 2013-May-19 02:53 UT
(server date/time)  
NASA Home Page
Site Manager:   Donald K. Yeomans
Webmaster  Alan B. Chamberlin